Weather History for Mansfield, OH

Change the Weather History Date:

Thursday, September 27, 2012

  Actual Average Record
Temperature  
Mean Temperature 55 °F 58 °F  
Max Temperature 61 °F 69 °F 85 °F (1973)
Min Temperature 48 °F 48 °F 27 °F (1947)
Degree Days  
Heating Degree Days 10 7  
Month to date heating degree days 127 99  
Since 1 July heating degree days 131 124  
Cooling Degree Days 0 1  
Month to date cooling degree days 82 61  
Year to date cooling degree days 947 623  
Growing Degree Days 4 (Base 50)    
Moisture  
Dew Point 55 °F    
Average Humidity 97    
Maximum Humidity 100    
Minimum Humidity 93    
Precipitation  
Precipitation 0.42 in 0.10 in 2.22 in (1986)
Month to date precipitation 6.71 3.01  
Year to date precipitation 28.18 33.84  
Snow  
Snow 0.00 in 0.00 in - ()
Month to date snowfall 0.0 0.0  
Since 1 July snowfall 0.0 0.0  
Since 1 September snowfall 0.0 0.0  
Snow Depth 0.00 in    
Sea Level Pressure  
Sea Level Pressure 30.16 in    
Wind  
Wind Speed 6 mph (NE)    
Max Wind Speed 15 mph    
Max Gust Speed 18 mph    
Visibility 5 miles    
Events Fog , Rain    
T = Trace of Precipitation, MM = Missing Value Source: NWS Daily Summary

Daily Weather History Graph

Daily Weather History Graph

Search for Another Location

Airport:

Trip Planner

Search our weather history database for the weather conditions in past years. The results will help you decide how hot, cold, wet, or windy it might be!

Date:

Astronomy

Sep. 27, 2012 Rise Set
Actual Time 7:23 AM EDT 7:17 PM EDT
Civil Twilight 6:55 AM EDT 7:45 PM EDT
Nautical Twilight 6:23 AM EDT 8:17 PM EDT
Astronomical Twilight 5:51 AM EDT 8:49 PM EDT
Moon 5:49 PM EDT 4:50 AM EDT
Length of Visible Light 12h 49m
Length of Day
11h 54m
Waxing Gibbous, 94% of the Moon is Illuminated
Sep 27
Waxing Gibbous
Sep 29
Full
Oct 8
Last Quarter
Oct 15
New
Oct 21
First Quarter

Hourly Weather History & Observations

Time (EDT) Temp. Dew Point Humidity Pressure Visibility Wind Dir Wind Speed Gust Speed Precip Events Conditions
12:00 AM 59.0 °F 59.0 °F 100% 30.13 in 0.2 mi Calm Calm - N/A Fog Fog
12:10 AM 57.2 °F 57.2 °F 100% 30.13 in 0.2 mi SSW 3.5 mph - N/A Fog Fog
12:19 AM 57.2 °F 57.2 °F 100% 30.13 in 1.0 mi Calm Calm - N/A   Mostly Cloudy
12:25 AM 59.0 °F 59.0 °F 100% 30.14 in 3.0 mi WSW 3.5 mph - N/A   Mostly Cloudy
12:49 AM 59.0 °F 59.0 °F 100% 30.14 in 7.0 mi Calm Calm - N/A   Overcast
12:52 AM 60.1 °F 60.1 °F 100% 30.13 in 7.0 mi Calm Calm - N/A   Overcast
1:39 AM 60.8 °F 60.8 °F 100% 30.13 in 6.0 mi NNW 4.6 mph - N/A   Overcast
1:52 AM 60.1 °F 60.1 °F 100% 30.13 in 5.0 mi NW 3.5 mph - N/A   Overcast
2:45 AM 60.8 °F 60.8 °F 100% 30.13 in 4.0 mi North 4.6 mph - N/A   Overcast
2:52 AM 61.0 °F 61.0 °F 100% 30.12 in 4.0 mi North 6.9 mph - N/A   Overcast
3:02 AM 60.8 °F 60.8 °F 100% 30.13 in 2.5 mi North 8.1 mph - N/A   Overcast
3:18 AM 59.0 °F 59.0 °F 100% 30.14 in 5.0 mi NE 5.8 mph - N/A   Overcast
3:32 AM 57.2 °F 57.2 °F 100% 30.14 in 7.0 mi NNE 8.1 mph - N/A   Overcast
3:52 AM 57.0 °F 57.0 °F 100% 30.13 in 9.0 mi NE 8.1 mph - N/A   Mostly Cloudy
4:07 AM 57.2 °F 57.2 °F 100% 30.14 in 9.0 mi NE 6.9 mph - N/A   Scattered Clouds
4:20 AM 57.2 °F 57.2 °F 100% 30.14 in 9.0 mi NE 5.8 mph - N/A   Mostly Cloudy
4:52 AM 57.9 °F 55.9 °F 93% 30.14 in 10.0 mi NE 3.5 mph - N/A   Overcast
5:52 AM 57.0 °F 55.9 °F 96% 30.15 in 7.0 mi NE 5.8 mph - N/A   Overcast
6:52 AM 57.0 °F 55.9 °F 96% 30.16 in 7.0 mi ENE 5.8 mph - N/A   Overcast
7:17 AM 57.2 °F 55.4 °F 94% 30.16 in 6.0 mi ENE 9.2 mph - N/A   Overcast
7:44 AM 57.2 °F 55.4 °F 94% 30.18 in 4.0 mi East 6.9 mph - 0.00 in Rain Light Rain
7:52 AM 57.0 °F 55.9 °F 96% 30.17 in 2.0 mi East 5.8 mph - 0.03 in Rain Rain
8:01 AM 57.2 °F 55.4 °F 94% 30.17 in 1.5 mi East 9.2 mph - 0.04 in Rain Rain
8:14 AM 57.2 °F 55.4 °F 94% 30.17 in 2.5 mi ENE 8.1 mph - 0.07 in Rain Light Rain
8:17 AM 57.2 °F 55.4 °F 94% 30.17 in 3.0 mi ENE 8.1 mph - 0.07 in Rain Light Rain
8:40 AM 57.2 °F 55.4 °F 94% 30.18 in 4.0 mi ENE 6.9 mph - 0.08 in   Overcast
8:52 AM 57.0 °F 55.9 °F 96% 30.17 in 3.0 mi East 6.9 mph - 0.08 in   Overcast
9:14 AM 55.4 °F 55.4 °F 100% 30.17 in 2.0 mi ENE 8.1 mph - 0.00 in Rain Light Rain
9:22 AM 55.4 °F 55.4 °F 100% 30.17 in 2.5 mi NE 9.2 mph - 0.00 in Rain Light Rain
9:29 AM 55.4 °F 55.4 °F 100% 30.17 in 3.0 mi ENE 8.1 mph - 0.00 in   Overcast
9:43 AM 55.4 °F 55.4 °F 100% 30.18 in 2.0 mi ENE 9.2 mph - 0.00 in Rain Light Rain
9:50 AM 55.4 °F 55.4 °F 100% 30.18 in 1.8 mi ENE 8.1 mph - 0.01 in Rain Light Rain
9:52 AM 55.9 °F 55.9 °F 100% 30.18 in 1.8 mi NE 8.1 mph - 0.01 in Rain Light Rain
10:20 AM 55.4 °F 55.4 °F 100% 30.18 in 1.8 mi NE 9.2 mph - 0.03 in Rain Light Rain
10:52 AM 55.0 °F 55.0 °F 100% 30.19 in 1.2 mi NE 9.2 mph - 0.07 in Rain Rain
11:12 AM 55.4 °F 55.4 °F 100% 30.18 in 3.0 mi NNE 8.1 mph - 0.05 in Rain Light Rain
11:33 AM 55.4 °F 55.4 °F 100% 30.18 in 5.0 mi NE 9.2 mph - 0.05 in   Overcast
11:52 AM 55.0 °F 55.0 °F 100% 30.18 in 4.0 mi NNE 9.2 mph - 0.05 in Rain Light Rain
12:23 PM 53.6 °F 53.6 °F 100% 30.17 in 2.5 mi NNE 9.2 mph - 0.01 in Rain Light Rain
12:35 PM 53.6 °F 53.6 °F 100% 30.17 in 1.5 mi NE 10.4 mph - 0.04 in Rain Rain
12:52 PM 54.0 °F 54.0 °F 100% 30.17 in 1.8 mi NE 12.7 mph - 0.06 in Rain Light Rain
1:05 PM 53.6 °F 53.6 °F 100% 30.17 in 2.0 mi NNE 8.1 mph - 0.01 in Rain Light Rain
1:23 PM 53.6 °F 53.6 °F 100% 30.17 in 1.5 mi NE 12.7 mph - 0.03 in Rain Light Rain
1:52 PM 54.0 °F 54.0 °F 100% 30.16 in 1.2 mi NE 13.8 mph - 0.07 in Rain Light Rain
2:34 PM 53.6 °F 53.6 °F 100% 30.15 in 2.5 mi NE 11.5 mph - 0.03 in   Overcast
2:52 PM 54.0 °F 53.1 °F 97% 30.16 in 2.0 mi NE 10.4 mph - 0.04 in Rain Light Rain
3:31 PM 53.6 °F 53.6 °F 100% 30.16 in 3.0 mi NE 9.2 mph - 0.00 in   Overcast
3:49 PM 53.6 °F 51.8 °F 94% 30.15 in 4.0 mi NNE 9.2 mph - 0.00 in   Overcast
3:52 PM 53.1 °F 52.0 °F 96% 30.16 in 4.0 mi NE 11.5 mph - 0.00 in   Overcast
4:05 PM 53.6 °F 51.8 °F 94% 30.16 in 2.5 mi NE 6.9 mph - N/A   Overcast
4:12 PM 53.6 °F 51.8 °F 94% 30.15 in 2.5 mi NE 6.9 mph - 0.00 in Rain Light Rain
4:21 PM 53.6 °F 53.6 °F 100% 30.15 in 4.0 mi NE 10.4 mph - 0.00 in Rain Light Rain
4:52 PM 54.0 °F 52.0 °F 93% 30.15 in 10.0 mi NE 6.9 mph - 0.01 in   Overcast
5:52 PM 54.0 °F 52.0 °F 93% 30.14 in 10.0 mi ENE 5.8 mph - N/A   Overcast
6:29 PM 55.4 °F 51.8 °F 88% 30.15 in 10.0 mi NNW 3.5 mph - N/A   Overcast
6:52 PM 54.0 °F 51.1 °F 90% 30.16 in 10.0 mi North 4.6 mph - N/A   Overcast
7:52 PM 54.0 °F 51.1 °F 90% 30.17 in 10.0 mi Calm Calm - N/A   Overcast
8:32 PM 53.6 °F 51.8 °F 94% 30.17 in 10.0 mi Calm Calm - N/A   Overcast
8:52 PM 54.0 °F 51.1 °F 90% 30.17 in 10.0 mi NNE 3.5 mph - N/A   Overcast
9:52 PM 50.0 °F 48.9 °F 96% 30.17 in 8.0 mi North 3.5 mph - N/A   Partly Cloudy
10:52 PM 48.0 °F 48.0 °F 100% 30.18 in 5.0 mi Calm Calm - N/A   Clear
11:52 PM 48.9 °F 48.9 °F 100% 30.17 in 10.0 mi Calm Calm - N/A   Clear